Back to catalog

DELTA 1 DEB

AliveSSO
NORAD 42556·DEBRIS·🇺🇸 United States

Launched Jul 23, 1972 from Vandenberg Space Force Base

Loading…

Next Passes (next 24 hours)

TLE

FreshSource: Space-Track

Epoch: Sep 13, 2026, 09:55 UTC

1 42556U 72058JP  26256.41327652  .00001480  00000-0  47544-3 0  9995
2 42556  98.4428 317.0969 0269311 181.0720 178.9916 14.22176839659852

Track DELTA 1 DEB in real time with AllMySat

Download on the App Store